Location: Erba
(45.8000°N, 9.2500°E)
Time: 02:04:20
(UTC+02:00)

ISS - Pass Details

Date: 03 August 2020
Orbit: 418 x 420 km, 51.6° (Epoch: 04 August)

Event Time Altitude Azimuth Distance (km) Brightness Sun altitude
Rises 21:59:48 0° 287° (WNW) 2,368 1.4 -11.2°
Reaches altitude 10° 22:02:33 10° 263° (W) 1,499 -0.3 -11.6°
Maximum altitude 22:04:33 15° 226° (SW) 1,229 -1.3 -11.9°
Drops below altitude 10° 22:06:33 10° 189° (S) 1,493 -1.3 -12.1°
Enters shadow 22:06:58 - 184° (S) 1,601 -1.2 -12.2°
